Home > Weather > Johor Bahru > Past weeks

Flag for Malaysia Weather for the Past 2 Weeks in Johor Bahru, Malaysia

Now
91 °F

Partly sunny.


Feels Like: 108 °F
Forecast: 79 / 87 °F
Wind: 12 mph from East

Location: Singapore / Paya Lebar

Current Time: Feb 12, 2016 at 2:45:49 PM

Latest Report: Feb 12, 2016 at 2:00 PM


Visibility: N/A

Pressure: 29.80 "Hg

Humidity: 67%

Dew point: 79 °F

Location of Johor BahruLocation

Historic Weather in Johor Bahru — Graph

°F

Johor Bahru Temperature Yesterday

Maximum temperature yesterday: 88 °F (at 3:00 PM)
Minimum temperature yesterday: 79 °F (at 5:00 AM)
Average temperature yesterday: 83 °F

High & Low Weather Summary for the Past Weeks

 TemperatureHumidityPressure
High95 °F (Jan 28, 3:00 PM)94% (Feb 2, 8:00 AM)29.92 "Hg (Feb 2, 8:00 AM)
Low77 °F (Feb 7, 5:00 AM)53% (Jan 28, 3:00 PM)29.68 "Hg (Feb 5, 5:00 PM)
Average84 °F76%29.82 "Hg
* Reported Jan 28 1:00 PM — Feb 12 1:00 PM, Johor Bahru, Weather by CustomWeather, © 2016

Note: Actual official high and low records may vary slightly from our data, if they occured in-between our weather recording intervals... More about our weather records

Advertising

Johor Bahru Weather History for the Previous 24 Hours

 ConditionsComfort  
Time TempWeatherWind HumidityBarometerVisibility
1:00 PM
Fri, Feb 12
91 °FPartly sunny.12 mph63%29.83 "HgN/A
12:00 PM90 °FPartly sunny.10 mph67%29.86 "HgN/A
11:00 AM88 °FPartly sunny.13 mph70%29.89 "HgN/A
10:00 AM84 °FPartly sunny.9 mph79%29.89 "HgN/A
9:00 AM82 °FBroken clouds.6 mph84%29.86 "HgN/A
8:00 AM81 °FPartly sunny.3 mph89%29.86 "HgN/A
7:00 AM81 °FPartly cloudy.3 mph89%29.83 "HgN/A
6:00 AM81 °FPassing clouds.6 mph89%29.83 "HgN/A
5:00 AM81 °FPassing clouds.7 mph89%29.83 "HgN/A
11:00 PM
Thu, Feb 11
82 °FPassing clouds.8 mph84%29.89 "HgN/A
10:00 PM82 °FPassing clouds.7 mph84%29.86 "HgN/A
9:00 PM82 °FPassing clouds.9 mph84%29.83 "HgN/A
8:00 PM84 °FPassing clouds.8 mph79%29.83 "HgN/A
7:00 PM86 °FPartly sunny.8 mph75%29.83 "HgN/A
6:00 PM86 °FScattered showers. Broken clouds.9 mph75%29.80 "HgN/A
5:00 PM88 °FPartly sunny.9 mph66%29.80 "HgN/A
4:00 PM88 °FPartly sunny.10 mph70%29.77 "HgN/A
3:00 PM88 °FPartly sunny.12 mph66%29.80 "HgN/A
2:00 PM86 °FBroken clouds.9 mph75%29.80 "HgN/A
Weather by CustomWeather, © 2016

See weather overviewHow to use our weather pages